Temperature
17 17 16 17 16 14 14 13 13 14 13 14 14 14 16 16 16 16 16 16 16 16 15 15 14 14 14 13 13 12 12 11 11 10 10 10 10 10 10 10 10 10 10 10
18 18 17 17 17 15 14 14 13 13 13 14 15 16 16 16 16 16 16 16 16 16 15 15 15 14 14 13 13 12 12 11 11 10 10 10 10 10 9 9 9 10 10 10
17 17 18 18 17 16 16 15 15 15 15 15 15 16 17 18 17 17 17 17 16 16 16 15 15 14 14 13 13 12 12 11 11 10 10 10 10 10 9 9 9 9 9 10
15 18 19 18 18 17 17 16 14 15 15 16 17 18 19 19 18 18 17 17 16 16 16 15 15 15 14 14 13 12 12 11 11 10 10 10 10 10 10 9 9 9 9 9
13 16 17 18 19 18 18 18 17 15 15 17 17 17 18 20 19 18 18 17 17 16 16 16 15 15 14 14 13 13 12 11 11 11 10 10 10 10 10 10 9 9 9 9
13 17 18 19 19 19 19 19 19 18 17 17 15 14 16 20 20 19 18 17 17 16 16 16 15 15 15 14 13 13 12 12 11 11 11 10 10 10 10 10 10 9 9 9
14 16 15 16 18 19 19 18 20 20 20 18 16 17 20 20 20 19 18 17 17 16 16 16 16 15 15 14 14 13 13 12 12 11 11 11 10 10 10 10 10 10 9 9
12 15 17 18 18 17 18 20 21 21 21 20 21 21 20 20 20 19 19 18 17 17 17 16 16 16 15 15 14 14 13 13 12 11 11 11 11 10 10 10 10 10 10 10
14 15 17 17 17 18 19 19 20 20 20 20 21 21 21 20 20 19 19 18 18 17 17 16 16 16 16 15 15 14 14 13 13 12 12 11 11 11 10 10 10 10 10 10
13 15 16 16 17 18 19 19 20 20 20 20 20 20 20 20 20 19 19 19 18 17 17 17 17 16 16 16 15 15 14 14 13 12 12 12 11 11 11 11 10 10 10 10
14 15 16 16 15 17 18 20 20 20 20 20 20 20 20 20 20 20 19 19 18 18 18 17 17 17 16 16 15 15 15 14 14 13 13 12 12 11 11 11 11 10 10 10
14 13 12 13 14 16 18 19 19 20 20 19 19 19 19 20 20 19 19 19 18 18 18 18 17 17 17 16 16 16 15 15 14 14 13 13 12 12 12 11 11 11 10 10
12 12 13 13 13 15 16 17 17 18 18 18 18 18 18 19 19 19 19 18 18 18 18 18 17 17 17 17 16 16 16 16 15 14 14 13 13 12 12 12 11 11 11 11
13 13 12 12 13 14 15 15 16 16 16 16 17 17 17 18 18 18 18 18 18 18 18 18 17 17 17 17 17 16 16 16 15 15 14 14 13 13 12 12 12 11 11 11
12 13 12 11 12 13 14 15 16 16 15 15 16 16 16 16 16 17 17 17 18 18 18 18 18 18 17 17 17 17 16 16 16 15 15 14 14 13 13 12 12 12 12 11
11 11 11 11 12 12 13 13 14 13 13 13 14 14 14 14 15 16 16 16 17 17 17 17 17 17 17 17 17 17 17 16 16 16 15 15 14 14 13 13 12 12 12 12
11 10 10 10 10 10 11 11 11 11 11 12 12 12 13 13 14 15 15 15 15 15 15 15 16 17 17 17 17 17 17 16 16 16 15 15 15 14 14 13 13 13 12 12
10 10 10 9 9 9 9 9 10 10 10 10 10 11 11 11 11 12 12 13 13 14 14 14 14 15 16 16 16 16 16 16 16 16 16 15 15 15 14 14 13 13 13 12
9 9 9 9 9 9 9 9 9 9 9 9 9 9 9 9 9 10 10 11 11 12 12 12 13 14 14 15 15 16 16 16 16 16 16 15 15 15 14 14 14 13 13 13
8 8 8 8 8 8 8 7 7 7 7 8 8 8 8 8 8 8 9 9 8 8 9 10 11 12 13 13 14 14 15 15 15 16 15 15 15 15 15 14 14 14 13 13
8 7 7 7 7 7 7 7 7 6 6 7 7 7 6 7 7 7 7 7 7 8 8 8 9 10 10 11 12 13 14 14 14 15 15 15 15 15 15 15 14 14 14 13
7 7 7 6 6 6 6 6 6 6 6 6 6 6 6 6 6 6 6 6 6 6 6 7 7 8 8 9 10 11 12 12 13 13 13 14 14 14 15 15 14 14 14 14
6 6 6 6 6 6 6 6 5 5 5 5 5 5 5 5 5 5 5 5 5 5 5 6 6 6 7 8 8 9 9 10 10 11 11 12 12 13 13 14 14 14 14 14
6 6 6 6 6 6 6 5 5 5 5 5 5 5 5 5 5 4 4 4 5 5 5 5 5 5 6 6 6 7 7 7 8 8 9 10 10 11 12 12 13 14 14 14
6 6 6 6 6 6 6 5 5 5 5 5 5 4 4 4 4 4 4 4 4 4 4 4 4 4 5 5 5 5 5 5 6 6 7 8 9 9 10 11 12 12 13 13
6 6 6 6 6 6 6 5 5 5 5 5 5 5 4 4 4 4 4 4 4 4 4 4 4 4 4 4 4 4 4 4 5 5 6 6 7 8 8 9 10 11 12 12
6 6 6 6 6 6 6 5 5 5 5 5 5 5 5 4 4 4 4 4 4 4 4 4 4 4 4 3 3 3 3 3 4 4 4 5 5 6 7 8 9 10 11 11
Wind_Speed
4 3 4 5 6 8 8 8 8 8 8 12 10 9 9 8 8 7 8 8 7 6 6 5 5 4 4 3 2 1 1 2 4 5 5 5 6 7 6 7 7 7 7 8
2 2 4 4 7 8 8 6 8 8 10 11 8 5 6 8 8 9 9 9 8 7 6 6 5 5 4 4 3 1 1 3 3 4 5 6 6 6 6 7 7 7 7 7
2 4 3 6 7 8 7 8 9 9 9 6 5 7 8 9 10 10 10 9 9 8 7 6 6 5 5 4 2 2 2 3 3 4 5 5 6 6 6 6 6 6 7 7
1 2 3 7 3 7 6 8 10 9 9 7 8 6 7 8 10 11 10 9 9 7 6 5 4 3 3 2 2 2 3 3 3 4 5 5 5 6 6 5 5 5 6 6
3 1 6 7 2 6 4 6 6 8 9 6 2 3 6 8 10 11 11 9 8 7 6 4 5 4 3 2 3 3 4 4 4 4 4 5 5 6 4 4 5 5 4 5
4 2 4 6 2 2 3 5 5 5 6 2 5 1 6 6 8 10 9 7 7 6 5 5 5 4 4 4 4 5 6 5 4 4 4 5 5 4 3 3 4 5 5 5
4 3 7 8 3 3 2 5 4 3 4 7 8 8 5 4 4 7 8 8 7 7 6 6 5 6 6 6 7 7 5 4 4 4 4 5 4 3 3 4 5 5 5 5
5 3 6 3 5 5 6 4 3 3 3 7 9 8 6 6 6 7 7 7 8 7 7 6 6 7 7 8 8 6 5 5 5 5 4 3 3 3 3 3 4 5 5 6
8 6 4 2 3 4 3 4 4 4 4 4 7 7 6 6 7 7 8 8 7 8 8 6 7 8 9 9 6 6 6 6 6 5 4 3 3 3 3 3 3 4 4 4
4 4 1 4 5 7 6 5 6 5 6 3 5 7 7 6 6 7 8 8 7 7 8 8 8 9 10 8 6 6 7 7 6 5 5 4 3 3 3 3 3 3 3 4
4 2 2 5 9 10 9 7 7 7 5 5 4 6 5 6 7 7 7 6 6 8 10 11 9 9 9 8 7 8 8 7 6 6 6 5 4 4 5 5 5 4 3 2
5 2 1 2 7 10 9 10 10 9 10 9 7 7 6 6 6 5 6 5 6 9 10 11 9 9 9 8 9 8 8 8 6 6 5 5 5 5 7 8 8 9 8 6
3 2 1 1 6 9 7 8 9 10 10 10 10 8 7 6 6 5 5 6 8 10 11 11 9 10 10 8 9 10 10 9 6 6 6 5 5 5 5 5 6 8 9 9
1 3 4 4 5 8 8 8 8 9 10 10 10 10 9 9 8 8 8 8 8 8 9 9 9 12 11 8 9 11 11 11 9 7 7 6 6 6 5 5 4 4 5 8
6 6 6 5 6 7 8 8 11 13 13 13 12 12 13 13 12 11 10 10 8 7 7 8 9 13 10 8 10 11 10 8 8 7 7 7 6 6 6 6 6 5 4 4
8 8 7 7 8 8 9 11 12 11 11 12 13 13 12 10 10 10 12 12 10 9 9 8 9 12 9 7 9 9 10 14 11 8 7 7 6 6 6 6 6 6 6 6
8 6 6 6 7 7 8 8 8 8 9 11 11 11 11 12 13 14 15 14 11 9 10 11 12 13 10 8 9 9 9 10 14 9 8 8 8 8 8 7 7 7 8 7
8 8 7 7 6 6 7 7 7 8 8 9 9 10 12 14 14 14 14 13 13 12 13 15 16 16 13 10 8 8 8 8 8 9 9 9 9 8 8 8 9 9 7 6
9 9 8 7 7 6 6 6 6 7 7 8 9 9 9 10 11 11 12 12 15 17 18 18 23 17 15 14 12 7 8 9 9 9 9 11 10 8 8 9 9 9 8 7
8 8 8 7 7 6 6 5 5 6 7 7 7 8 10 10 11 11 11 9 9 11 15 18 17 15 16 16 17 8 8 9 10 9 9 9 10 10 10 10 10 9 9 8
9 8 8 7 5 5 4 4 4 5 5 6 7 7 8 8 9 9 10 9 11 14 15 19 15 14 15 18 17 10 8 8 9 9 9 10 10 10 10 10 10 10 10 9
7 6 6 5 4 2 2 2 2 3 4 5 6 6 7 8 8 8 6 6 10 17 13 11 11 19 24 21 13 12 10 9 8 8 8 9 9 10 11 11 11 11 10 10
6 5 5 4 3 1 1 1 1 2 3 3 4 5 5 5 5 5 7 8 8 17 12 10 19 26 26 16 13 13 13 12 10 9 8 8 9 10 10 11 11 11 10 10
5 5 4 3 2 1 2 3 3 3 3 4 4 5 4 4 5 4 5 11 15 16 9 14 22 25 21 12 12 13 13 13 12 11 10 9 8 8 9 9 10 10 10 12
5 4 3 4 4 4 5 4 4 4 4 4 6 6 5 4 5 6 7 8 12 13 8 13 20 21 13 10 11 12 12 13 14 12 11 10 9 9 9 8 9 10 10 10
5 4 5 5 5 4 4 3 3 4 4 4 5 5 5 5 6 6 6 7 9 12 9 8 9 12 9 9 10 11 11 13 13 12 13 12 12 11 10 9 10 10 10 10
4 3 3 3 4 4 4 4 5 5 5 5 6 6 6 6 6 6 7 7 7 8 8 8 8 8 8 9 9 9 10 10 11 11 12 12 12 12 11 12 10 9 9 9
Wind_Direction
220 213 174 204 197 177 187 196 208 243 250 267 264 244 239 230 229 241 256 260 260 261 269 277 279 272 258 260 272 280 312 325 326 327 332 336 340 340 342 347 350 344 346 347
6 357 198 245 236 204 216 216 234 263 275 261 264 250 241 229 222 234 245 250 255 258 261 264 264 262 255 251 252 231 267 296 313 329 337 339 337 339 343 344 343 347 350 346
317 337 42 281 243 197 214 213 201 229 248 268 261 246 238 228 220 227 237 241 244 246 247 252 252 247 243 244 232 217 255 288 309 322 329 330 335 342 341 338 341 344 346 348
93 54 259 245 244 186 214 246 218 235 254 250 244 260 255 226 216 227 233 233 236 236 241 246 242 236 229 216 209 222 253 280 295 309 315 323 334 339 333 329 336 335 337 342
107 170 288 299 241 175 193 286 226 230 261 267 262 336 297 232 211 219 223 221 224 222 221 230 232 221 192 205 215 234 251 264 275 286 303 318 326 328 327 331 335 331 329 342
122 158 240 251 285 171 123 305 275 220 261 201 123 19 280 271 217 219 219 216 217 212 208 223 226 191 187 212 225 240 244 250 263 271 283 297 307 313 318 323 322 327 334 342
151 215 263 251 244 121 101 263 277 231 237 174 193 216 244 296 235 214 212 212 206 199 209 222 205 180 202 219 233 238 237 244 258 265 269 276 295 308 318 327 332 339 337 336
148 184 258 250 150 176 221 257 275 265 229 208 233 257 263 271 251 226 216 211 198 201 222 224 195 189 214 231 237 231 226 239 254 262 267 274 282 304 322 333 336 340 343 339
184 204 246 313 229 297 293 275 287 292 284 248 253 262 256 252 247 237 225 217 204 205 224 228 206 198 218 236 226 215 222 238 250 261 260 258 259 282 306 321 326 328 338 335
230 261 316 11 351 336 311 280 296 305 310 292 268 279 274 261 251 242 233 223 209 205 222 235 222 214 225 233 212 207 224 238 244 252 262 258 244 237 245 271 288 305 317 321
233 289 3 23 8 345 344 4 11 6 9 356 325 308 290 274 263 250 241 229 210 212 225 237 230 226 230 223 205 214 228 237 241 240 247 253 248 234 229 232 217 228 248 255
198 185 179 351 345 346 7 20 18 22 22 15 6 337 323 299 285 270 257 242 230 229 234 242 237 237 236 215 201 209 226 235 234 234 237 237 247 268 243 234 244 237 230 222
215 239 190 17 358 356 8 17 23 32 26 15 7 358 350 333 322 311 291 266 247 243 242 244 242 245 243 216 201 209 221 228 224 223 227 230 229 238 265 273 251 247 244 239
32 134 97 43 8 2 14 19 32 37 29 22 12 8 5 358 351 346 327 302 279 265 258 252 249 252 250 219 207 217 223 229 223 220 219 220 221 224 227 240 266 273 256 245
59 82 100 85 49 33 29 36 43 34 23 19 16 15 10 5 356 346 337 333 323 303 285 273 263 264 261 226 216 222 223 226 222 218 215 215 216 217 220 226 234 247 261 266
102 84 85 79 63 46 42 42 42 29 19 15 14 10 3 358 354 354 356 355 350 337 326 316 295 287 285 250 230 230 230 230 217 213 213 213 212 214 219 222 228 234 239 237
128 113 96 81 66 54 45 40 36 23 17 16 8 1 2 6 8 6 1 357 352 347 349 344 327 319 311 281 248 241 235 233 223 214 213 213 212 215 218 218 223 230 237 226
120 122 123 114 98 76 52 38 31 26 20 9 6 10 13 13 6 358 353 353 0 4 2 349 341 335 326 312 283 257 243 235 222 219 218 216 215 215 213 217 222 229 239 234
116 113 105 97 93 84 64 41 27 20 15 12 14 13 9 5 357 351 350 359 7 1 351 344 343 343 336 328 316 279 257 244 234 228 222 220 218 215 214 217 222 225 226 221
115 111 105 96 87 81 68 44 30 27 16 11 13 12 9 1 355 353 353 360 1 345 336 343 346 345 341 335 328 301 274 256 246 239 229 222 220 220 218 219 221 222 222 219
124 118 110 103 93 79 68 50 39 27 10 11 16 8 356 348 350 352 355 355 346 341 344 348 349 345 344 343 335 324 300 276 260 250 240 233 229 226 222 220 220 221 221 220
139 134 128 123 113 90 47 36 31 19 11 7 4 358 353 348 345 345 342 331 329 343 349 345 346 349 352 349 345 341 331 311 288 271 257 247 239 234 230 225 222 222 220 218
153 156 157 160 157 178 315 324 335 339 339 334 331 332 329 319 318 331 335 329 329 345 349 340 349 354 357 355 350 348 345 339 326 307 286 268 255 248 243 235 228 223 219 217
167 177 185 181 166 196 265 270 275 274 275 280 280 284 289 303 306 290 285 320 336 342 341 340 351 357 358 355 350 349 348 344 340 333 321 302 283 268 257 249 241 232 225 219
179 186 192 191 207 225 235 251 272 271 272 277 281 277 265 249 260 285 297 305 324 334 330 336 346 350 352 345 347 346 345 343 342 341 337 329 316 300 283 267 255 247 237 228
186 200 212 214 219 227 226 227 241 258 261 274 283 279 274 268 267 277 287 295 303 320 322 316 321 331 334 336 338 339 339 339 339 339 339 337 330 322 309 296 276 262 251 241
197 205 218 242 244 224 218 222 236 253 250 250 269 278 281 282 282 284 288 291 297 301 303 305 308 311 316 321 325 328 330 332 333 335 337 336 335 329 322 310 299 285 269 254
Height
1543 1542 1544 1545 1547 1552 1556 1558 1561 1553 1548 1536 1529 1527 1525 1526 1528 1529 1530 1530 1531 1530 1530 1529 1527 1526 1524 1523 1521 1519 1517 1514 1511 1509 1506 1503 1500 1497 1494 1491 1489 1486 1483 1480
1542 1541 1541 1543 1542 1546 1549 1549 1550 1547 1542 1526 1524 1523 1522 1523 1524 1526 1527 1528 1528 1528 1528 1527 1526 1525 1523 1522 1520 1518 1516 1513 1511 1508 1506 1503 1500 1497 1494 1492 1489 1486 1483 1481
1549 1544 1542 1546 1537 1539 1540 1539 1540 1541 1533 1523 1522 1521 1520 1520 1521 1522 1524 1525 1526 1526 1526 1525 1525 1523 1522 1520 1519 1517 1515 1513 1511 1508 1506 1503 1500 1497 1494 1492 1489 1486 1484 1481
1554 1547 1550 1539 1527 1529 1532 1530 1530 1528 1523 1521 1520 1519 1518 1518 1518 1519 1521 1522 1523 1524 1524 1524 1523 1522 1521 1519 1517 1516 1514 1512 1510 1508 1505 1503 1500 1497 1494 1492 1489 1486 1483 1481
1558 1555 1549 1533 1525 1526 1529 1527 1521 1522 1519 1518 1518 1517 1515 1514 1515 1516 1518 1520 1521 1522 1522 1522 1521 1521 1519 1518 1516 1515 1513 1511 1509 1507 1505 1503 1500 1498 1495 1492 1489 1486 1483 1481
1557 1551 1549 1533 1523 1522 1526 1528 1519 1518 1517 1517 1518 1522 1517 1513 1512 1514 1515 1517 1518 1519 1520 1520 1520 1519 1518 1517 1515 1514 1512 1511 1509 1507 1505 1503 1500 1498 1495 1492 1489 1486 1483 1481
1555 1552 1545 1525 1521 1523 1534 1533 1517 1516 1515 1515 1515 1515 1513 1512 1512 1512 1513 1515 1516 1517 1517 1518 1518 1517 1516 1515 1514 1513 1511 1510 1508 1507 1505 1503 1500 1498 1495 1492 1489 1486 1483 1481
1553 1551 1542 1519 1520 1524 1524 1516 1516 1515 1514 1513 1512 1511 1511 1510 1511 1511 1512 1513 1514 1514 1515 1515 1515 1515 1514 1513 1513 1511 1510 1509 1507 1506 1504 1502 1500 1498 1495 1492 1489 1486 1484 1481
1535 1533 1522 1519 1519 1518 1517 1516 1515 1514 1513 1512 1511 1509 1509 1509 1509 1509 1510 1510 1511 1512 1512 1513 1513 1512 1512 1512 1511 1509 1508 1507 1506 1504 1503 1501 1499 1497 1495 1492 1490 1487 1484 1481
1527 1520 1519 1518 1516 1515 1513 1513 1513 1512 1511 1510 1509 1508 1507 1507 1507 1507 1507 1508 1508 1509 1509 1509 1510 1509 1509 1509 1508 1507 1506 1505 1504 1502 1501 1500 1498 1496 1494 1492 1490 1487 1485 1482
1521 1518 1517 1516 1515 1513 1512 1512 1511 1511 1510 1509 1508 1507 1506 1505 1505 1505 1505 1505 1506 1506 1506 1506 1507 1506 1506 1506 1505 1504 1503 1502 1501 1500 1499 1497 1496 1495 1493 1491 1489 1487 1485 1483
1518 1517 1517 1518 1516 1514 1512 1511 1510 1510 1509 1508 1507 1505 1504 1503 1503 1502 1502 1502 1502 1502 1502 1502 1503 1503 1503 1503 1502 1501 1500 1499 1498 1497 1496 1495 1494 1492 1491 1490 1488 1486 1485 1483
1513 1514 1515 1516 1515 1514 1512 1511 1511 1509 1508 1507 1506 1505 1503 1502 1501 1500 1499 1499 1498 1498 1498 1498 1498 1498 1498 1499 1498 1497 1496 1495 1494 1494 1493 1492 1490 1489 1489 1488 1486 1485 1484 1482
1510 1512 1514 1514 1514 1513 1512 1511 1511 1510 1508 1507 1505 1503 1502 1500 1499 1497 1496 1495 1494 1493 1493 1493 1493 1493 1493 1493 1493 1492 1491 1491 1490 1489 1488 1488 1487 1486 1485 1485 1484 1483 1482 1481
1509 1510 1512 1513 1513 1512 1512 1511 1509 1508 1507 1505 1504 1502 1500 1498 1497 1495 1494 1492 1490 1489 1488 1487 1486 1486 1487 1487 1486 1486 1485 1485 1485 1484 1484 1483 1482 1482 1481 1481 1480 1480 1479 1479
1508 1510 1511 1511 1511 1511 1510 1509 1507 1507 1506 1505 1503 1501 1500 1498 1496 1494 1491 1488 1486 1484 1483 1481 1480 1480 1479 1479 1478 1478 1478 1479 1479 1478 1478 1478 1477 1477 1476 1476 1476 1476 1475 1476
1506 1508 1509 1509 1510 1510 1509 1509 1508 1508 1506 1505 1503 1501 1499 1497 1494 1491 1489 1486 1484 1482 1479 1476 1474 1473 1472 1471 1470 1470 1470 1471 1471 1471 1471 1471 1471 1471 1471 1470 1470 1470 1471 1471
1505 1506 1508 1508 1509 1509 1509 1509 1508 1507 1506 1505 1503 1501 1497 1494 1492 1489 1487 1484 1481 1478 1475 1472 1469 1467 1465 1464 1462 1462 1462 1462 1463 1463 1464 1464 1464 1464 1464 1464 1464 1464 1465 1466
1504 1505 1507 1508 1508 1509 1509 1508 1508 1507 1506 1504 1502 1500 1497 1495 1492 1489 1486 1482 1477 1473 1470 1468 1465 1462 1459 1457 1455 1454 1453 1453 1454 1454 1455 1456 1457 1457 1457 1457 1457 1457 1458 1459
1503 1505 1506 1507 1508 1508 1508 1508 1507 1506 1505 1503 1501 1499 1496 1494 1491 1488 1484 1481 1478 1474 1470 1466 1462 1458 1454 1451 1449 1447 1445 1445 1445 1445 1446 1447 1448 1448 1449 1449 1450 1450 1451 1452
1502 1503 1505 1506 1506 1507 1507 1507 1506 1505 1504 1502 1500 1498 1496 1493 1490 1486 1482 1479 1476 1472 1468 1464 1459 1455 1451 1447 1444 1441 1438 1437 1436 1436 1437 1438 1438 1439 1440 1441 1441 1442 1442 1443
1500 1502 1503 1504 1505 1506 1506 1505 1505 1504 1503 1501 1499 1497 1495 1492 1489 1486 1483 1479 1475 1471 1467 1462 1457 1453 1449 1444 1440 1436 1433 1430 1429 1428 1428 1428 1429 1430 1431 1432 1432 1433 1434 1434
1498 1500 1502 1503 1504 1504 1504 1504 1503 1503 1501 1500 1498 1496 1494 1491 1488 1485 1481 1478 1474 1470 1466 1461 1457 1452 1447 1442 1437 1433 1429 1426 1423 1421 1420 1419 1419 1420 1421 1422 1423 1423 1424 1425
1496 1498 1500 1501 1502 1502 1503 1502 1502 1501 1500 1498 1496 1495 1492 1490 1487 1484 1481 1477 1474 1469 1465 1460 1456 1451 1445 1440 1435 1431 1427 1423 1419 1416 1413 1412 1411 1410 1410 1411 1412 1413 1414 1415
1494 1496 1497 1499 1499 1500 1500 1500 1499 1498 1497 1496 1494 1493 1490 1488 1485 1482 1479 1476 1472 1468 1464 1459 1455 1450 1445 1439 1435 1430 1425 1421 1417 1413 1409 1406 1403 1402 1401 1401 1401 1402 1403 1404
1492 1494 1495 1495 1496 1496 1496 1496 1496 1495 1494 1493 1491 1490 1488 1486 1483 1480 1477 1474 1470 1466 1462 1458 1453 1448 1444 1439 1434 1429 1424 1419 1414 1409 1405 1401 1398 1395 1393 1391 1391 1391 1392 1393
1489 1490 1491 1492 1492 1493 1493 1492 1492 1491 1490 1489 1487 1486 1484 1482 1480 1477 1474 1471 1467 1464 1460 1456 1452 1447 1442 1437 1432 1427 1422 1417 1412 1407 1402 1397 1393 1389 1386 1384 1382 1381 1381 1382